Wind_Speed
4 4 4 3 3 3 2 1 2 2 2 2 2 2 2 2 2 3 3 3 3 4 3 3 3 3 4 4 4 4 5 6 6 7 8 9 9 10 10 11 11 12 12
4 3 3 3 2 2 2 0 0 0 1 1 2 2 3 3 3 3 3 3 3 4 4 3 4 4 4 4 5 5 6 6 7 8 8 9 10 10 11 11 11 12 13
4 3 3 3 3 2 2 2 1 1 1 1 2 3 3 3 3 3 3 3 3 4 4 4 4 4 4 5 5 6 6 6 7 8 9 9 10 11 12 12 12 12 13
3 3 3 3 4 4 3 3 3 3 2 2 3 3 4 4 4 4 4 4 4 4 5 5 5 5 5 5 6 6 6 7 8 8 9 10 10 11 11 12 13 13 14
3 4 4 4 5 4 4 4 4 4 4 4 4 4 5 6 6 6 6 5 5 5 6 6 6 6 6 7 7 7 8 9 9 9 10 10 11 11 12 13 14 14 15
4 5 5 5 5 5 5 5 5 4 4 5 5 6 6 6 7 7 7 7 7 7 7 8 8 8 8 8 9 9 9 10 11 11 11 11 11 12 13 14 14 14 14
6 6 6 6 6 6 6 6 6 5 5 5 6 7 7 7 7 8 8 9 9 9 8 9 9 10 10 10 10 10 11 11 11 12 12 12 13 13 14 14 15 15 15
7 8 7 7 7 6 6 6 6 6 6 6 7 7 8 8 8 9 9 10 11 11 10 10 10 11 11 11 11 11 12 13 13 14 14 14 14 15 15 16 16 16 16
8 8 8 8 8 7 7 8 8 8 7 7 8 9 9 10 10 11 11 11 12 13 13 12 12 11 12 12 13 13 14 15 15 15 15 16 16 17 17 17 18 18 18
9 8 9 9 9 9 10 10 10 10 9 9 10 10 11 12 13 13 13 13 14 14 14 14 13 14 13 13 15 16 16 16 16 16 17 17 17 19 19 19 19 19 19
10 9 9 10 11 11 12 12 12 11 11 11 12 12 12 13 14 14 14 14 14 15 16 17 17 16 15 16 17 17 17 18 18 18 18 19 19 19 19 19 20 20 20
12 12 12 12 12 13 13 13 13 13 13 13 13 13 14 14 14 15 15 15 15 16 18 18 18 17 17 18 19 19 19 18 19 19 19 19 20 19 20 20 21 21 22
15 15 14 14 14 14 14 14 14 14 14 15 15 15 15 15 15 16 16 16 16 17 18 19 19 18 19 20 20 20 20 20 20 19 19 20 20 20 20 20 21 22 22
17 17 16 15 15 15 15 15 15 15 16 16 16 17 16 16 17 18 18 18 19 20 19 20 20 20 21 21 21 21 21 21 20 20 20 21 21 21 21 21 22 22 23
19 19 18 17 17 16 16 16 17 17 17 17 18 18 18 18 19 19 20 20 21 21 21 21 22 22 21 21 21 21 21 22 21 22 22 23 23 23 23 23 23 23 23
21 20 20 19 19 18 18 18 19 18 18 18 18 19 19 19 20 21 21 21 22 22 22 22 22 21 22 22 21 21 21 22 23 23 24 24 23 24 24 24 24 24 25
22 23 22 21 21 21 20 20 21 20 20 20 20 21 21 21 21 22 23 23 23 24 23 23 23 23 22 21 21 22 22 23 24 24 24 24 25 26 26 25 25 26 26
24 24 24 23 23 24 23 23 22 22 22 23 24 24 24 25 24 24 24 24 24 24 24 23 23 23 23 23 23 22 23 24 25 25 26 26 27 27 26 26 26 26 27
26 26 26 25 25 25 24 24 24 24 24 25 26 27 27 27 26 25 25 25 25 25 25 25 25 25 25 24 24 24 24 24 25 26 26 26 26 26 26 27 27 27 27
27 28 28 27 26 27 26 26 26 26 26 26 27 27 26 27 26 26 26 27 26 27 27 27 27 26 26 25 25 26 26 26 27 27 27 26 27 26 27 27 27 27 27
28 28 28 27 27 27 28 28 27 27 27 26 26 26 26 26 27 27 27 27 28 28 28 28 27 27 27 26 26 27 27 28 28 28 27 27 27 27 27 27 26 26 26
28 28 28 27 27 28 29 29 29 29 29 28 27 27 27 27 28 28 28 28 28 28 28 29 29 29 29 28 27 27 28 28 28 27 27 28 27 27 27 27 26 26 27
28 28 29 29 29 30 30 31 31 31 30 30 29 29 30 30 29 29 29 29 29 30 30 30 31 30 30 29 29 29 29 29 28 28 29 29 29 29 29 28 28 28 28
28 28 29 29 30 30 31 32 32 32 32 31 30 30 30 30 31 31 32 31 31 31 31 31 31 30 30 30 30 30 30 29 29 29 29 30 31 30 30 30 30 30 30
27 28 29 29 30 31 32 32 33 33 32 32 32 32 31 31 32 32 32 32 31 30 30 30 31 31 30 30 30 30 30 30 31 31 31 32 32 32 32 31 31 31 31
29 29 30 31 31 31 32 33 34 34 34 33 32 32 32 32 31 31 31 31 30 30 30 30 30 29 29 29 29 30 30 31 32 32 33 34 34 33 32 32 33 33 34
Wind_Direction
27 30 39 45 46 59 76 104 98 80 72 61 35 26 23 20 14 4 357 356 354 348 332 314 313 303 287 279 279 278 276 277 280 284 284 286 290 293 296 296 295 295 295
10 10 28 25 19 25 25 16 170 110 72 39 10 5 2 359 356 353 352 356 357 353 342 325 316 306 299 292 286 286 285 282 281 283 286 289 292 294 295 296 293 294 296
346 341 341 350 347 350 354 347 309 309 340 349 354 352 349 345 336 339 347 345 342 344 343 334 326 317 300 290 284 286 288 287 288 285 286 289 291 292 295 296 295 295 297
331 321 317 324 324 320 319 317 316 293 288 303 319 329 336 332 325 324 325 324 328 334 335 326 319 314 306 297 293 289 289 290 291 287 287 287 288 292 293 295 297 296 298
320 315 309 315 317 315 317 322 323 299 280 287 301 314 323 322 316 312 314 315 315 317 322 319 312 308 303 296 296 292 286 289 293 292 293 289 288 293 296 297 297 295 297
305 305 303 306 315 315 316 319 321 307 288 288 295 304 312 318 316 313 313 315 316 315 315 314 311 307 302 296 292 290 289 290 291 291 293 293 293 295 296 296 297 295 296
297 301 299 297 301 303 303 306 308 306 296 290 288 292 300 308 311 314 311 310 312 307 304 303 303 302 301 296 293 292 292 292 292 293 293 291 291 292 294 296 296 294 296
290 295 299 297 297 300 301 300 302 301 297 290 287 293 298 300 303 305 306 302 303 304 301 299 297 297 299 296 294 293 292 293 294 296 295 294 292 291 293 295 295 295 295
286 286 290 291 291 291 292 292 296 294 292 291 290 292 293 294 297 300 303 301 299 301 302 299 296 295 295 295 293 291 292 293 294 295 296 295 293 293 293 294 293 294 295
286 282 284 285 288 290 289 287 291 292 289 289 295 298 296 295 297 299 300 298 296 299 301 299 295 293 292 294 293 291 290 292 293 293 294 293 293 294 292 290 291 292 294
281 282 283 281 284 288 290 288 286 288 287 287 292 295 296 295 296 299 300 299 297 298 300 299 294 293 293 293 293 292 291 291 291 292 292 291 292 293 292 289 290 291 291
278 282 285 283 282 285 288 288 286 285 285 286 287 289 292 293 295 298 298 297 297 300 302 301 300 294 291 293 293 291 293 291 291 292 292 292 292 293 291 288 288 289 289
274 279 282 283 282 282 284 285 284 285 285 283 287 287 289 290 292 296 299 299 300 302 304 302 301 297 294 294 293 291 294 294 291 292 294 294 294 295 294 290 289 289 289
273 277 280 280 282 280 282 283 284 284 284 283 285 287 285 286 287 291 295 297 300 301 302 301 303 298 293 293 295 294 292 293 292 292 293 294 294 294 293 292 291 291 290
272 276 277 277 281 280 279 282 284 284 284 285 286 288 290 288 287 291 294 296 298 299 302 302 301 300 298 296 297 296 292 291 291 292 292 293 295 294 292 291 291 291 290
269 272 274 275 277 279 277 278 281 283 284 285 287 287 288 288 289 290 293 294 295 297 299 301 304 299 298 299 298 295 294 293 292 291 292 293 294 294 293 292 291 290 289
266 268 270 270 273 276 276 276 277 280 282 283 285 285 286 287 288 290 292 292 292 294 296 298 299 300 300 299 297 295 293 293 294 293 292 293 294 294 292 291 291 290 290
262 263 265 269 272 273 274 274 276 277 278 280 281 283 284 284 286 290 291 291 290 292 293 294 296 297 298 299 297 296 294 294 294 294 292 292 294 295 293 292 291 289 289
260 260 261 267 271 272 274 276 276 277 279 281 281 281 280 280 283 286 287 286 287 289 290 292 293 293 294 295 296 294 294 295 295 295 294 294 293 292 292 291 291 290 288
260 260 261 265 268 269 271 272 274 276 278 280 280 280 278 278 281 283 283 283 285 287 287 289 289 292 292 293 295 296 294 295 296 296 295 295 294 293 292 289 289 291 291
260 260 260 262 265 267 269 271 274 276 275 277 277 277 277 278 281 282 282 283 284 285 286 287 288 290 291 291 292 293 295 296 295 294 295 296 296 295 292 291 292 293 293
259 259 260 261 262 266 269 270 272 275 275 275 275 276 277 278 280 282 282 282 284 287 287 288 290 290 289 289 290 291 293 295 295 295 295 296 295 294 292 291 291 292 293
260 260 261 261 263 267 269 270 271 273 275 275 274 274 275 276 278 280 281 283 285 287 288 288 290 289 288 288 288 289 292 294 294 293 293 294 293 293 292 293 292 292 292
261 261 261 263 265 267 268 270 271 272 273 274 275 276 276 277 279 281 282 283 285 286 287 288 288 288 287 287 288 289 291 291 292 293 293 293 293 292 292 292 293 292 291
262 262 263 264 265 265 267 269 270 272 273 274 275 276 275 276 278 279 281 282 283 284 285 286 287 287 286 287 288 288 289 290 291 291 292 292 293 292 291 292 293 294 293
264 264 263 264 265 266 268 270 270 272 272 272 274 276 275 275 277 279 280 280 282 282 283 286 287 287 286 287 288 288 289 289 290 290 292 292 292 291 291 291 292 292 293
Height
5913 5913 5912 5911 5910 5910 5910 5910 5909 5909 5908 5908 5907 5906 5906 5905 5904 5903 5902 5902 5901 5900 5900 5899 5898 5897 5897 5897 5896 5896 5896 5896 5896 5896 5896 5895 5894 5894 5893 5892 5892 5891 5890
5914 5913 5913 5912 5911 5911 5910 5910 5910 5909 5909 5908 5907 5907 5906 5905 5904 5903 5903 5902 5901 5900 5899 5899 5898 5897 5897 5896 5896 5895 5895 5895 5895 5895 5894 5894 5893 5892 5891 5890 5890 5889 5888
5915 5914 5913 5913 5912 5911 5911 5910 5910 5909 5909 5908 5908 5907 5906 5905 5904 5903 5902 5902 5901 5900 5899 5898 5898 5897 5896 5896 5895 5894 5894 5894 5893 5893 5892 5892 5891 5890 5889 5888 5887 5886 5885
5915 5914 5913 5913 5912 5912 5911 5910 5910 5909 5908 5908 5908 5907 5906 5905 5904 5903 5902 5901 5900 5900 5899 5898 5897 5896 5895 5894 5894 5893 5893 5892 5891 5891 5890 5889 5889 5888 5887 5886 5884 5883 5882
5915 5914 5913 5912 5912 5911 5910 5910 5909 5908 5908 5907 5907 5906 5906 5905 5903 5903 5902 5900 5899 5899 5898 5897 5896 5895 5894 5893 5892 5892 5891 5891 5890 5889 5888 5887 5886 5885 5884 5883 5882 5881 5879
5914 5914 5913 5912 5911 5911 5910 5909 5908 5907 5907 5906 5906 5905 5905 5904 5903 5902 5901 5900 5898 5897 5896 5896 5895 5894 5893 5892 5891 5890 5889 5889 5888 5887 5886 5885 5884 5883 5881 5880 5879 5878 5876
5913 5913 5912 5911 5910 5910 5909 5908 5907 5906 5906 5905 5905 5904 5903 5902 5902 5901 5900 5898 5897 5896 5895 5893 5893 5892 5890 5889 5889 5888 5887 5886 5885 5884 5883 5882 5881 5880 5878 5877 5876 5874 5873
5912 5912 5911 5910 5910 5909 5908 5907 5906 5905 5904 5904 5903 5902 5902 5901 5900 5899 5898 5897 5896 5894 5893 5891 5890 5889 5888 5887 5886 5885 5884 5883 5882 5881 5880 5879 5878 5876 5875 5874 5872 5871 5869
5910 5910 5909 5909 5908 5907 5906 5905 5905 5904 5903 5902 5902 5901 5900 5899 5898 5897 5896 5895 5893 5892 5891 5889 5888 5886 5885 5884 5883 5882 5881 5880 5879 5878 5876 5875 5874 5873 5871 5870 5869 5868 5866
5908 5908 5907 5907 5906 5905 5904 5903 5903 5902 5901 5901 5900 5899 5898 5897 5896 5894 5893 5892 5891 5889 5888 5886 5885 5883 5882 5881 5879 5878 5877 5876 5875 5874 5872 5871 5870 5868 5867 5865 5864 5863 5861
5906 5905 5905 5904 5903 5903 5902 5901 5900 5899 5899 5898 5897 5896 5895 5894 5893 5892 5890 5889 5887 5886 5885 5883 5881 5880 5878 5877 5875 5874 5873 5871 5870 5869 5868 5866 5865 5864 5862 5860 5859 5858 5856
5903 5902 5902 5901 5900 5900 5899 5898 5897 5896 5896 5895 5894 5893 5892 5891 5890 5889 5887 5885 5884 5883 5881 5879 5877 5875 5874 5873 5871 5869 5868 5866 5865 5864 5863 5861 5860 5858 5857 5855 5854 5852 5851
5899 5899 5898 5898 5897 5896 5895 5894 5894 5893 5892 5892 5891 5890 5889 5887 5886 5885 5883 5882 5880 5879 5877 5875 5873 5871 5870 5868 5866 5864 5863 5861 5860 5859 5858 5856 5855 5853 5851 5849 5848 5846 5845
5895 5894 5894 5893 5893 5892 5891 5890 5890 5889 5888 5887 5887 5886 5884 5883 5882 5881 5879 5878 5877 5875 5873 5871 5869 5867 5865 5863 5861 5859 5857 5856 5854 5853 5852 5851 5849 5847 5845 5843 5842 5840 5839
5890 5890 5889 5889 5888 5888 5887 5886 5885 5884 5883 5883 5882 5881 5880 5879 5878 5877 5875 5874 5872 5870 5869 5867 5865 5863 5860 5858 5856 5854 5852 5850 5849 5847 5846 5844 5843 5841 5839 5837 5836 5834 5832
5884 5884 5884 5883 5883 5883 5882 5881 5880 5880 5879 5878 5877 5876 5875 5874 5873 5872 5870 5869 5867 5865 5864 5862 5859 5857 5855 5853 5851 5849 5847 5845 5843 5841 5840 5838 5837 5835 5833 5831 5829 5827 5826
5878 5878 5877 5877 5877 5877 5876 5876 5875 5874 5873 5873 5872 5871 5870 5869 5868 5866 5865 5863 5862 5860 5858 5857 5855 5852 5850 5848 5846 5844 5842 5840 5838 5836 5834 5832 5830 5828 5826 5824 5822 5820 5819
5870 5870 5871 5871 5871 5870 5870 5870 5869 5868 5868 5867 5866 5865 5864 5863 5862 5860 5859 5857 5855 5854 5853 5851 5849 5847 5845 5843 5841 5838 5836 5834 5832 5829 5827 5825 5822 5820 5818 5816 5814 5813 5812
5863 5863 5863 5864 5864 5864 5863 5863 5863 5862 5861 5860 5859 5858 5857 5856 5855 5854 5853 5851 5849 5848 5846 5845 5843 5841 5839 5837 5835 5833 5830 5827 5825 5823 5820 5818 5815 5813 5810 5808 5807 5805 5804
5855 5855 5856 5856 5856 5856 5856 5856 5855 5855 5854 5853 5852 5851 5850 5849 5848 5847 5845 5844 5843 5841 5840 5838 5837 5835 5833 5831 5829 5826 5824 5822 5819 5816 5814 5811 5809 5806 5803 5800 5799 5798 5796
5847 5847 5847 5848 5848 5848 5848 5848 5847 5847 5846 5845 5844 5844 5843 5842 5841 5840 5838 5837 5835 5834 5832 5831 5829 5828 5826 5824 5822 5819 5817 5815 5812 5809 5807 5804 5802 5799 5796 5794 5793 5791 5789
5838 5839 5839 5840 5840 5840 5840 5840 5840 5839 5838 5838 5837 5836 5836 5835 5833 5832 5831 5829 5828 5826 5825 5823 5822 5820 5818 5816 5814 5812 5810 5807 5805 5802 5800 5798 5795 5793 5790 5788 5786 5784 5782
5831 5831 5831 5832 5833 5833 5833 5832 5832 5831 5830 5830 5829 5828 5828 5827 5825 5824 5823 5821 5820 5819 5817 5815 5814 5812 5810 5808 5806 5804 5802 5800 5797 5795 5793 5790 5788 5786 5783 5781 5778 5776 5774
5823 5823 5823 5824 5825 5825 5824 5824 5823 5823 5823 5821 5821 5820 5819 5818 5817 5816 5815 5813 5812 5810 5809 5807 5805 5803 5801 5799 5798 5796 5794 5792 5790 5788 5785 5783 5780 5778 5775 5773 5771 5768 5766
5815 5815 5815 5816 5816 5816 5816 5815 5815 5814 5814 5813 5812 5811 5810 5809 5808 5807 5806 5805 5803 5802 5800 5799 5796 5794 5793 5791 5789 5787 5786 5784 5782 5779 5777 5775 5772 5770 5767 5765 5762 5760 5757
5806 5807 5807 5807 5807 5807 5807 5806 5805 5805 5804 5804 5803 5802 5801 5800 5799 5798 5797 5795 5794 5793 5791 5790 5788 5786 5784 5782 5781 5779 5777 5775 5773 5771 5768 5766 5763 5760 5758 5756 5753 5751 5748